Вернуться в каталог

SL-14 DEB

АктивенPO
NORAD 19134·DEBRIS·🇷🇺 Russia

Запущен Oct 26, 1978 с Plesetsk Cosmodrome

Loading…

Ближайшие Пролёты (ближайшие 24 часа)

TLE

СвежийSource: Space-Track

Эпоха: Sep 14, 2026, 15:07 UTC

1 19134U 78100G   26257.62992921  .00006861  00000-0  23119-1 0  9994
2 19134  82.2948  18.5898 0181655 197.6452 176.1834 12.93646684162190

Отслеживайте SL-14 DEB в реальном времени с AllMySat

Download on the App Store